Time,TemperatureF,DewpointF,PressureIn,WindDirection,WindDirectionDegrees,WindSpeedMPH,WindSpeedGustMPH,Humidity,HourlyPrecipIn,Conditions,Clouds,dailyrainin,SoftwareType,DateUTC
2013-09-18 00:07:00,57.0,56.0,29.92,SSW,210,0.0,-999.0,95,-99.99,,,0.01,weatherlink.com 1.10,2013-09-18 05:07:00,
2013-09-18 00:22:00,57.0,56.0,29.91,SSW,210,0.0,-999.0,96,-99.99,,,0.05,weatherlink.com 1.10,2013-09-18 05:22:00,
2013-09-18 00:37:00,57.0,56.0,29.91,SSW,210,0.0,-999.0,96,-99.99,,,0.09,weatherlink.com 1.10,2013-09-18 05:37:00,
2013-09-18 00:52:00,57.0,56.0,29.90,SSW,210,0.0,-999.0,96,-99.99,,,0.12,weatherlink.com 1.10,2013-09-18 05:52:00,
2013-09-18 01:08:00,57.0,56.0,29.90,SSW,210,0.0,-999.0,96,-99.99,,,0.13,weatherlink.com 1.10,2013-09-18 06:08:00,
2013-09-18 01:23:00,57.2,56.0,29.89,SSW,210,0.0,-999.0,96,-99.99,,,0.13,weatherlink.com 1.10,2013-09-18 06:23:00,
2013-09-18 01:38:00,57.2,56.0,29.88,SSW,210,0.0,-999.0,96,-99.99,,,0.13,weatherlink.com 1.10,2013-09-18 06:38:00,
2013-09-18 01:53:00,57.3,56.0,29.88,SSW,208,0.0,-999.0,96,-99.99,,,0.13,weatherlink.com 1.10,2013-09-18 06:53:00,
2013-09-18 02:08:00,57.3,57.0,29.88,SSW,208,0.0,-999.0,97,-99.99,,,0.13,weatherlink.com 1.10,2013-09-18 07:08:00,
2013-09-18 02:23:00,57.5,57.0,29.88,SSW,208,0.0,-999.0,97,-99.99,,,0.13,weatherlink.com 1.10,2013-09-18 07:23:00,
2013-09-18 02:38:00,57.5,57.0,29.88,SSW,208,0.0,-999.0,97,-99.99,,,0.13,weatherlink.com 1.10,2013-09-18 07:38:00,
2013-09-18 02:53:00,57.6,57.0,29.87,SSW,208,0.0,-999.0,97,-99.99,,,0.13,weatherlink.com 1.10,2013-09-18 07:53:00,
2013-09-18 03:08:00,57.6,57.0,29.86,SSW,208,0.0,-999.0,97,-99.99,,,0.13,weatherlink.com 1.10,2013-09-18 08:08:00,
2013-09-18 03:23:00,57.6,57.0,29.85,SSW,208,0.0,-999.0,97,-99.99,,,0.13,weatherlink.com 1.10,2013-09-18 08:23:00,
2013-09-18 03:38:00,57.6,57.0,29.84,SSW,208,0.0,-999.0,97,-99.99,,,0.13,weatherlink.com 1.10,2013-09-18 08:38:00,
2013-09-18 03:53:00,57.8,57.0,29.85,SSW,208,0.0,-999.0,98,-99.99,,,0.13,weatherlink.com 1.10,2013-09-18 08:53:00,
2013-09-18 04:08:00,58.0,58.0,29.85,SSW,208,0.0,-999.0,98,-99.99,,,0.13,weatherlink.com 1.10,2013-09-18 09:08:00,
2013-09-18 04:23:00,58.0,58.0,29.84,SSW,208,0.0,-999.0,98,-99.99,,,0.13,weatherlink.com 1.10,2013-09-18 09:23:00,
2013-09-18 04:38:00,58.1,58.0,29.84,SSW,208,0.0,-999.0,98,-99.99,,,0.13,weatherlink.com 1.10,2013-09-18 09:38:00,
2013-09-18 04:53:00,58.4,58.0,29.84,SSW,208,0.0,-999.0,99,-99.99,,,0.13,weatherlink.com 1.10,2013-09-18 09:53:00,
2013-09-18 05:08:00,58.4,58.0,29.83,SSW,208,0.0,-999.0,98,-99.99,,,0.13,weatherlink.com 1.10,2013-09-18 10:08:00,
2013-09-18 05:23:00,58.6,58.0,29.83,SSW,208,0.0,-999.0,99,-99.99,,,0.13,weatherlink.com 1.10,2013-09-18 10:23:00,
2013-09-18 05:38:00,58.6,58.0,29.82,SSW,208,0.0,-999.0,99,-99.99,,,0.13,weatherlink.com 1.10,2013-09-18 10:38:00,
2013-09-18 05:53:00,58.7,59.0,29.82,SSW,208,0.0,-999.0,99,-99.99,,,0.13,weatherlink.com 1.10,2013-09-18 10:53:00,
2013-09-18 06:08:00,59.0,59.0,29.82,SSW,208,0.0,-999.0,99,-99.99,,,0.13,weatherlink.com 1.10,2013-09-18 11:08:00,
2013-09-18 06:23:00,59.3,59.0,29.82,SSW,208,0.0,-999.0,99,-99.99,,,0.13,weatherlink.com 1.10,2013-09-18 11:23:00,
2013-09-18 06:38:00,59.5,59.0,29.82,SSW,208,0.0,-999.0,99,-99.99,,,0.13,weatherlink.com 1.10,2013-09-18 11:38:00,
2013-09-18 06:53:00,59.6,59.0,29.81,West,273,0.0,-999.0,99,-99.99,,,0.13,weatherlink.com 1.10,2013-09-18 11:53:00,
2013-09-18 07:09:00,59.9,60.0,29.81,West,273,0.0,-999.0,99,-99.99,,,0.13,weatherlink.com 1.10,2013-09-18 12:09:00,
2013-09-18 07:24:00,60.2,60.0,29.82,SW,232,0.0,-999.0,99,-99.99,,,0.13,weatherlink.com 1.10,2013-09-18 12:24:00,
2013-09-18 07:39:00,60.7,61.0,29.82,SW,225,0.0,-999.0,99,-99.99,,,0.13,weatherlink.com 1.10,2013-09-18 12:39:00,
2013-09-18 07:54:00,61.0,61.0,29.82,South,171,2.0,-999.0,99,-99.99,,,0.13,weatherlink.com 1.10,2013-09-18 12:54:00,
2013-09-18 08:08:00,61.3,61.0,29.83,WSW,242,0.0,-999.0,99,-99.99,,,0.13,weatherlink.com 1.10,2013-09-18 13:08:00,
2013-09-18 08:23:00,61.5,61.0,29.83,SSE,163,0.0,-999.0,99,-99.99,,,0.13,weatherlink.com 1.10,2013-09-18 13:23:00,
2013-09-18 08:38:00,61.5,61.0,29.82,SSW,192,0.0,-999.0,99,-99.99,,,0.14,weatherlink.com 1.10,2013-09-18 13:38:00,
2013-09-18 08:53:00,61.5,61.0,29.80,SSW,192,0.0,-999.0,99,-99.99,,,0.14,weatherlink.com 1.10,2013-09-18 13:53:00,
2013-09-18 09:09:00,61.6,61.0,29.81,SSW,192,0.0,-999.0,99,-99.99,,,0.14,weatherlink.com 1.10,2013-09-18 14:09:00,
2013-09-18 09:24:00,61.6,61.0,29.80,SSW,192,0.0,-999.0,99,-99.99,,,0.14,weatherlink.com 1.10,2013-09-18 14:24:00,
2013-09-18 09:39:00,61.8,62.0,29.81,SSW,192,0.0,-999.0,99,-99.99,,,0.15,weatherlink.com 1.10,2013-09-18 14:39:00,
2013-09-18 09:54:00,62.1,62.0,29.80,SSW,192,0.0,-999.0,99,-99.99,,,0.15,weatherlink.com 1.10,2013-09-18 14:54:00,
2013-09-18 10:09:00,62.4,62.0,29.80,SSW,192,0.0,-999.0,99,-99.99,,,0.15,weatherlink.com 1.10,2013-09-18 15:09:00,
2013-09-18 10:24:00,62.6,62.0,29.81,NE,42,1.0,-999.0,99,-99.99,,,0.15,weatherlink.com 1.10,2013-09-18 15:24:00,
2013-09-18 10:39:00,62.7,63.0,29.81,West,272,0.0,-999.0,99,-99.99,,,0.15,weatherlink.com 1.10,2013-09-18 15:39:00,
2013-09-18 10:54:00,63.1,63.0,29.82,SE,128,0.0,-999.0,99,-99.99,,,0.15,weatherlink.com 1.10,2013-09-18 15:54:00,
2013-09-18 11:09:00,63.2,63.0,29.81,ESE,121,1.0,-999.0,99,-99.99,,,0.15,weatherlink.com 1.10,2013-09-18 16:09:00,
2013-09-18 11:24:00,63.9,64.0,29.80,WSW,254,1.0,-999.0,99,-99.99,,,0.15,weatherlink.com 1.10,2013-09-18 16:24:00,
2013-09-18 12:09:00,65.8,66.0,29.78,SSW,192,0.0,-999.0,99,-99.99,,,0.15,weatherlink.com 1.10,2013-09-18 17:09:00,
2013-09-18 12:24:00,66.1,66.0,29.78,SE,142,2.0,-999.0,99,-99.99,,,0.15,weatherlink.com 1.10,2013-09-18 17:24:00,
2013-09-18 12:39:00,66.0,66.0,29.77,South,190,1.0,-999.0,99,-99.99,,,0.15,weatherlink.com 1.10,2013-09-18 17:39:00,
2013-09-18 12:54:00,66.8,66.0,29.77,SW,215,4.0,-999.0,98,-99.99,,,0.15,weatherlink.com 1.10,2013-09-18 17:54:00,
2013-09-18 13:09:00,67.1,66.0,29.77,South,174,3.0,-999.0,96,-99.99,,,0.15,weatherlink.com 1.10,2013-09-18 18:09:00,
2013-09-18 13:24:00,67.8,66.0,29.77,SSW,193,0.0,-999.0,93,-99.99,,,0.15,weatherlink.com 1.10,2013-09-18 18:24:00,
2013-09-18 13:39:00,68.4,65.0,29.75,SSE,163,0.0,-999.0,90,-99.99,,,0.15,weatherlink.com 1.10,2013-09-18 18:39:00,
2013-09-18 13:54:00,69.3,65.0,29.75,WSW,246,0.0,-999.0,87,-99.99,,,0.15,weatherlink.com 1.10,2013-09-18 18:54:00,
2013-09-18 14:11:00,69.4,65.0,29.74,West,260,0.0,-999.0,85,-99.99,,,0.15,weatherlink.com 1.10,2013-09-18 19:11:00,
2013-09-18 14:25:00,69.4,65.0,29.73,West,274,1.0,-999.0,85,-99.99,,,0.15,weatherlink.com 1.10,2013-09-18 19:25:00,
2013-09-18 14:40:00,69.8,65.0,29.73,SW,219,1.0,-999.0,84,-99.99,,,0.15,weatherlink.com 1.10,2013-09-18 19:40:00,
2013-09-18 14:55:00,70.1,65.0,29.72,WNW,290,0.0,-999.0,84,-99.99,,,0.15,weatherlink.com 1.10,2013-09-18 19:55:00,
2013-09-18 15:10:00,70.3,65.0,29.72,South,188,0.0,-999.0,82,-99.99,,,0.15,weatherlink.com 1.10,2013-09-18 20:10:00,
2013-09-18 15:25:00,70.4,65.0,29.72,West,278,0.0,-999.0,82,-99.99,,,0.15,weatherlink.com 1.10,2013-09-18 20:25:00,
2013-09-18 15:40:00,70.6,65.0,29.71,SSE,163,0.0,-999.0,82,-99.99,,,0.15,weatherlink.com 1.10,2013-09-18 20:40:00,
2013-09-18 15:55:00,70.8,65.0,29.71,SW,232,0.0,-999.0,81,-99.99,,,0.15,weatherlink.com 1.10,2013-09-18 20:55:00,
2013-09-18 16:10:00,70.6,65.0,29.71,SW,232,4.0,-999.0,81,-99.99,,,0.15,weatherlink.com 1.10,2013-09-18 21:10:00,
2013-09-18 16:25:00,70.6,65.0,29.71,SSW,200,1.0,-999.0,82,-99.99,,,0.15,weatherlink.com 1.10,2013-09-18 21:25:00,
2013-09-18 16:40:00,70.6,65.0,29.70,West,278,0.0,-999.0,83,-99.99,,,0.15,weatherlink.com 1.10,2013-09-18 21:40:00,
2013-09-18 16:55:00,70.4,65.0,29.70,SSE,166,0.0,-999.0,83,-99.99,,,0.15,weatherlink.com 1.10,2013-09-18 21:55:00,
2013-09-18 17:10:00,70.9,66.0,29.70,SSW,203,0.0,-999.0,83,-99.99,,,0.15,weatherlink.com 1.10,2013-09-18 22:10:00,
2013-09-18 17:25:00,71.3,66.0,29.69,West,259,0.0,-999.0,82,-99.99,,,0.15,weatherlink.com 1.10,2013-09-18 22:25:00,
2013-09-18 17:40:00,71.6,66.0,29.69,South,169,1.0,-999.0,83,-99.99,,,0.15,weatherlink.com 1.10,2013-09-18 22:40:00,
2013-09-18 17:55:00,71.8,66.0,29.69,South,169,0.0,-999.0,82,-99.99,,,0.15,weatherlink.com 1.10,2013-09-18 22:55:00,
2013-09-18 18:10:00,72.0,67.0,29.69,South,169,0.0,-999.0,84,-99.99,,,0.15,weatherlink.com 1.10,2013-09-18 23:10:00,
2013-09-18 18:25:00,72.0,67.0,29.68,South,169,0.0,-999.0,83,-99.99,,,0.15,weatherlink.com 1.10,2013-09-18 23:25:00,
2013-09-18 18:40:00,71.8,66.0,29.68,South,169,0.0,-999.0,83,-99.99,,,0.15,weatherlink.com 1.10,2013-09-18 23:40:00,
2013-09-18 18:55:00,71.3,66.0,29.68,South,169,0.0,-999.0,83,-99.99,,,0.15,weatherlink.com 1.10,2013-09-18 23:55:00,
2013-09-18 19:11:00,70.4,65.0,29.68,South,169,0.0,-999.0,84,-99.99,,,0.15,weatherlink.com 1.10,2013-09-19 00:11:00,
2013-09-18 19:26:00,69.6,65.0,29.68,South,169,0.0,-999.0,85,-99.99,,,0.15,weatherlink.com 1.10,2013-09-19 00:26:00,
2013-09-18 19:41:00,68.9,64.0,29.68,South,169,0.0,-999.0,85,-99.99,,,0.15,weatherlink.com 1.10,2013-09-19 00:41:00,
2013-09-18 19:56:00,68.3,64.0,29.68,South,169,0.0,-999.0,86,-99.99,,,0.15,weatherlink.com 1.10,2013-09-19 00:56:00,
2013-09-18 20:11:00,67.6,64.0,29.68,South,169,0.0,-999.0,87,-99.99,,,0.15,weatherlink.com 1.10,2013-09-19 01:11:00,
2013-09-18 20:26:00,66.9,63.0,29.68,South,169,0.0,-999.0,88,-99.99,,,0.15,weatherlink.com 1.10,2013-09-19 01:26:00,
2013-09-18 20:56:00,66.1,64.0,29.69,South,169,0.0,-999.0,91,-99.99,,,0.15,weatherlink.com 1.10,2013-09-19 01:56:00,
2013-09-18 21:11:00,66.0,64.0,29.69,South,169,0.0,-999.0,92,-99.99,,,0.15,weatherlink.com 1.10,2013-09-19 02:11:00,
2013-09-18 21:26:00,65.8,64.0,29.69,South,169,0.0,-999.0,93,-99.99,,,0.15,weatherlink.com 1.10,2013-09-19 02:26:00,
2013-09-18 21:41:00,66.0,64.0,29.69,South,169,0.0,-999.0,94,-99.99,,,0.15,weatherlink.com 1.10,2013-09-19 02:41:00,
2013-09-18 21:56:00,66.3,65.0,29.69,South,169,0.0,-999.0,95,-99.99,,,0.15,weatherlink.com 1.10,2013-09-19 02:56:00,
2013-09-18 22:11:00,66.6,66.0,29.69,South,169,0.0,-999.0,96,-99.99,,,0.15,weatherlink.com 1.10,2013-09-19 03:11:00,
2013-09-18 22:26:00,66.8,66.0,29.69,South,169,0.0,-999.0,96,-99.99,,,0.15,weatherlink.com 1.10,2013-09-19 03:26:00,
2013-09-18 22:56:00,67.3,66.0,29.69,South,169,0.0,-999.0,96,-99.99,,,0.15,weatherlink.com 1.10,2013-09-19 03:56:00,
2013-09-18 23:11:00,67.4,66.0,29.68,NNE,28,0.0,-999.0,96,-99.99,,,0.15,weatherlink.com 1.10,2013-09-19 04:11:00,
2013-09-18 23:26:00,67.4,66.0,29.68,West,273,0.0,-999.0,96,-99.99,,,0.15,weatherlink.com 1.10,2013-09-19 04:26:00,
2013-09-18 23:41:00,67.6,67.0,29.68,West,267,0.0,-999.0,96,-99.99,,,0.15,weatherlink.com 1.10,2013-09-19 04:41:00,
2013-09-18 23:56:00,67.4,66.0,29.67,West,263,1.0,-999.0,96,-99.99,,,0.15,weatherlink.com 1.10,2013-09-19 04:56:00,